Ainsworth, NE

3:16 AM CST on December 09, 2019 (GMT -0600)
Ainsworth Municipal

Weather History for KANW - November, 2019

Change the Weather History Date:

Saturday, November 16, 2019

  Actual Average Record
Temperature  
Mean Temperature 46 °F -  
Max Temperature 58 °F 45 °F 71 °F (2016)
Min Temperature 35 °F 24 °F -6 °F (2014)
Degree Days  
Heating Degree Days 18    
Moisture  
Dew Point 35 °F    
Average Humidity 65    
Maximum Humidity 89    
Minimum Humidity 36    
Precipitation  
Precipitation 0.00 in - - ()
Sea Level Pressure  
Sea Level Pressure 29.95 in    
Wind  
Wind Speed 9 mph ()    
Max Wind Speed 21 mph    
Max Gust Speed 30 mph    
Visibility 10.0 miles    
Events      
Averages and records for this station are not official NWS values.
T = Trace of Precipitation, MM = Missing Value Source: Averaged Metar Reports

Daily Weather History Graph

Daily Weather History Graph

Search for Another Location

Airport or City:

Astronomy

Nov. 16, 2019 Rise Set
Actual Time 7:32 AM CST 5:16 PM CST
Civil Twilight 7:01 AM CST 5:47 PM CST
Nautical Twilight 6:27 AM CST 6:21 PM CST
Astronomical Twilight 5:54 AM CST 6:54 PM CST
Moon 8:48 PM CST (11/16) 11:30 AM CST (11/16)
Length of Visible Light 10h 45m
Length of Day
9h 44m
Waning Gibbous, 82% of the Moon is Illuminated
Nov 16
Waning Gibbous
Nov 19
Last Quarter
Nov 26
New
Dec 4
First Quarter
Dec 11
Full

Hourly Weather History & Observations

Time (CST) Temp. Windchill Dew Point Humidity Pressure Visibility Wind Dir Wind Speed Gust Speed Precip Events Conditions
12:15 AM 38.8 °F 32.6 °F 33.1 °F 80% 29.96 in 10.0 mi South 9.2 mph - N/A   Clear
12:35 AM 38.5 °F 32.7 °F 32.5 °F 79% 29.96 in 10.0 mi South 8.1 mph - N/A   Clear
12:55 AM 38.1 °F 31.7 °F 32.9 °F 81% 29.94 in 10.0 mi South 9.2 mph - N/A   Clear
1:15 AM 41.4 °F 35.2 °F 34.0 °F 75% 29.94 in 10.0 mi South 10.4 mph - N/A   Clear
1:35 AM 43.5 °F 37.1 °F 34.0 °F 69% 29.92 in 10.0 mi SSW 12.7 mph - N/A   Clear
1:55 AM 44.1 °F 38.1 °F 34.0 °F 68% 29.92 in 10.0 mi SSW 11.5 mph - N/A   Clear
2:15 AM 45.0 °F 38.9 °F 33.8 °F 65% 29.92 in 10.0 mi SSW 12.7 mph - N/A   Clear
2:35 AM 44.6 °F 37.8 °F 33.3 °F 64% 29.92 in 10.0 mi SSW 15.0 mph - N/A   Clear
2:55 AM 43.7 °F 36.9 °F 32.9 °F 66% 29.91 in 10.0 mi SSW 13.8 mph - N/A   Clear
3:15 AM 42.1 °F 35.7 °F 32.9 °F 70% 29.91 in 10.0 mi SSW 11.5 mph - N/A   Clear
3:35 AM 39.9 °F 35.1 °F 32.2 °F 74% 29.90 in 10.0 mi SSW 6.9 mph - N/A   Clear
3:55 AM 39.2 °F 35.0 °F 32.2 °F 76% 29.90 in 10.0 mi SSW 5.8 mph - N/A   Clear
4:15 AM 39.2 °F 33.0 °F 32.4 °F 76% 29.89 in 10.0 mi SSW 9.2 mph - N/A   Clear
4:35 AM 39.6 °F 33.0 °F 32.4 °F 75% 29.88 in 10.0 mi SW 10.4 mph - N/A   Clear
4:55 AM 39.9 °F 33.9 °F 32.4 °F 74% 29.88 in 10.0 mi SSW 9.2 mph - N/A   Clear
5:15 AM 38.5 °F 33.4 °F 32.0 °F 78% 29.89 in 10.0 mi SSW 6.9 mph - N/A   Clear
5:35 AM 36.7 °F 31.2 °F 32.0 °F 83% 29.88 in 10.0 mi SSW 6.9 mph - N/A   Clear
5:55 AM 36.9 °F 30.7 °F 32.0 °F 83% 29.88 in 10.0 mi SSW 8.1 mph - N/A   Clear
6:15 AM 36.7 °F 34.1 °F 32.2 °F 84% 29.87 in 10.0 mi SSW 3.5 mph - N/A   Clear
6:35 AM 38.5 °F - 32.0 °F 78% 29.88 in 10.0 mi Calm Calm - N/A   Clear
6:55 AM 36.5 °F 30.3 °F 32.0 °F 84% 29.88 in 10.0 mi SSW 8.1 mph - N/A   Clear
7:15 AM 35.6 °F 29.9 °F 32.0 °F 87% 29.88 in 10.0 mi SSW 6.9 mph - N/A   Clear
7:35 AM 35.8 °F 30.1 °F 32.7 °F 89% 29.87 in 10.0 mi SSW 6.9 mph - N/A   Clear
7:55 AM 37.4 °F 31.4 °F 32.9 °F 84% 29.88 in 10.0 mi SSW 8.1 mph - N/A   Clear
8:15 AM 38.3 °F 33.9 °F 33.1 °F 81% 29.89 in 10.0 mi SSW 5.8 mph - N/A   Clear
8:35 AM 39.9 °F 35.1 °F 34.0 °F 79% 29.89 in 10.0 mi SSW 6.9 mph - N/A   Clear
8:55 AM 42.8 °F 40.1 °F 34.7 °F 73% 29.88 in 10.0 mi SSW 4.6 mph - N/A   Clear
9:15 AM 44.8 °F 43.3 °F 34.9 °F 68% 29.88 in 10.0 mi SSW 3.5 mph - N/A   Clear
9:35 AM 46.4 °F 43.5 °F 35.1 °F 65% 29.88 in 10.0 mi WSW 5.8 mph - N/A   Clear
9:55 AM 47.3 °F - 34.9 °F 62% 29.89 in 10.0 mi WSW 6.9 mph - N/A   Clear
10:15 AM 49.6 °F - 35.6 °F 59% 29.89 in 10.0 mi WSW 4.6 mph - N/A   Clear
10:35 AM 51.3 °F - 34.9 °F 54% 29.90 in 10.0 mi WNW 9.2 mph - N/A   Clear
10:55 AM 53.4 °F - 34.9 °F 49% 29.90 in 10.0 mi WNW 9.2 mph - N/A   Clear
11:15 AM 56.5 °F - 33.8 °F 42% 29.90 in 10.0 mi NNW 12.7 mph 16.1 mph N/A   Clear
11:35 AM 58.8 °F - 32.0 °F 36% 29.90 in 10.0 mi NW 15.0 mph - N/A   Clear
11:55 AM 58.5 °F - 31.8 °F 37% 29.90 in 10.0 mi NNW 12.7 mph 18.4 mph N/A   Clear
12:15 PM 57.9 °F - 32.5 °F 38% 29.89 in 10.0 mi NNW 13.8 mph 20.7 mph N/A   Clear
12:55 PM 58.8 °F - 34.0 °F 39% 29.89 in 10.0 mi NW 18.4 mph 25.3 mph N/A   Clear
1:15 PM 57.9 °F - 34.3 °F 41% 29.90 in 10.0 mi NNW 17.3 mph 21.9 mph N/A   Clear
1:35 PM 56.5 °F - 34.9 °F 44% 29.91 in 10.0 mi NNW 12.7 mph 21.9 mph N/A   Clear
1:55 PM 55.4 °F - 34.2 °F 45% 29.92 in 10.0 mi NNW 18.4 mph 25.3 mph N/A   Scattered Clouds
2:15 PM 55.8 °F - 35.8 °F 47% 29.92 in 10.0 mi NNW 15.0 mph 19.6 mph N/A   Mostly Cloudy
2:35 PM 57.9 °F - 35.6 °F 43% 29.91 in 10.0 mi North 16.1 mph 27.6 mph N/A   Mostly Cloudy
2:55 PM 55.6 °F - 34.7 °F 45% 29.92 in 10.0 mi North 19.6 mph 24.2 mph N/A   Mostly Cloudy
3:15 PM 55.4 °F - 34.9 °F 46% 29.92 in 10.0 mi North 13.8 mph 24.2 mph N/A   Overcast
3:35 PM 54.9 °F - 35.2 °F 48% 29.94 in 10.0 mi North 20.7 mph 29.9 mph N/A   Mostly Cloudy
3:55 PM 55.0 °F - 36.0 °F 49% 29.95 in 10.0 mi North 20.7 mph 29.9 mph N/A   Mostly Cloudy
4:15 PM 54.5 °F - 36.5 °F 51% 29.95 in 10.0 mi North 19.6 mph 24.2 mph N/A   Mostly Cloudy
4:35 PM 54.5 °F - 36.9 °F 51% 29.96 in 10.0 mi NNW 17.3 mph 26.5 mph N/A   Mostly Cloudy
4:55 PM 54.3 °F - 37.0 °F 52% 29.97 in 10.0 mi NNW 17.3 mph 23.0 mph N/A   Overcast
5:35 PM 52.9 °F - 38.3 °F 58% 30.00 in 10.0 mi NNW 10.4 mph - N/A   Overcast
5:55 PM 52.2 °F - 39.0 °F 61% 30.02 in 10.0 mi NNW 11.5 mph 16.1 mph N/A   Light Drizzle
6:15 PM 52.3 °F - 37.6 °F 57% 30.03 in 10.0 mi NNW 20.7 mph 27.6 mph N/A   Overcast
6:35 PM 51.3 °F - 38.3 °F 61% 30.04 in 10.0 mi NNW 8.1 mph - N/A   Overcast
6:55 PM 51.1 °F - 37.6 °F 60% 30.05 in 10.0 mi NW 11.5 mph 16.1 mph N/A   Overcast
7:15 PM 50.7 °F - 37.4 °F 60% 30.06 in 10.0 mi NNW 12.7 mph - N/A   Overcast
7:35 PM 50.2 °F - 37.6 °F 62% 30.06 in 10.0 mi NNW 9.2 mph - N/A   Overcast
7:55 PM 49.1 °F - 38.3 °F 66% 30.06 in 10.0 mi NNW 6.9 mph - N/A   Overcast
8:15 PM 48.4 °F - 38.3 °F 68% 30.07 in 10.0 mi NW 5.8 mph - N/A   Overcast
8:35 PM 47.5 °F - 38.5 °F 71% 30.08 in 10.0 mi NW 8.1 mph - N/A   Overcast
8:55 PM 48.2 °F - 39.0 °F 71% 30.08 in 10.0 mi NNW 9.2 mph 17.3 mph N/A   Overcast
9:15 PM 48.2 °F - 38.3 °F 69% 30.09 in 10.0 mi NNW 11.5 mph 18.4 mph N/A   Overcast
9:55 PM 46.4 °F 41.5 °F 37.0 °F 70% 30.09 in 10.0 mi NNW 10.4 mph - N/A   Overcast
10:15 PM 45.0 °F 39.7 °F 36.5 °F 72% 30.09 in 10.0 mi NNW 10.4 mph - N/A   Scattered Clouds
10:35 PM 44.1 °F 39.5 °F 36.1 °F 74% 30.09 in 10.0 mi NW 8.1 mph 16.1 mph N/A   Clear
10:55 PM 43.2 °F 39.7 °F 35.8 °F 75% 30.09 in 10.0 mi NW 5.8 mph - N/A   Scattered Clouds
11:15 PM 41.7 °F 38.0 °F 35.6 °F 79% 30.09 in 10.0 mi WNW 5.8 mph - N/A   Scattered Clouds
11:35 PM 40.1 °F 36.9 °F 34.5 °F 80% 30.09 in 10.0 mi WNW 4.6 mph - N/A   Clear
11:55 PM 38.8 °F 33.8 °F 34.7 °F 85% 30.08 in 10.0 mi WNW 6.9 mph - N/A   Scattered Clouds